RH
66 64 67 67 72 66 65 66 60 57 76 76 77 79 78 80 79 79 78 75 75 74 78 81 81 85 78
66 70 68 75 69 62 68 66 66 74 74 77 77 77 80 80 81 81 80 78 75 74 85 81 84 85 72
75 70 70 70 68 72 75 68 74 78 76 78 78 80 80 79 81 80 82 84 82 82 79 79 82 80 75
80 78 80 77 77 80 82 76 73 70 69 79 78 78 76 79 77 79 83 77 77 75 77 76 72 73 82
86 82 86 80 79 77 86 90 84 76 78 79 81 67 62 64 72 81 78 82 79 74 84 98 89 99 86
78 77 75 79 80 85 97 97 84 80 88 85 83 76 67 71 78 82 85 82 83 95 80 73 70 80 98
76 82 85 81 82 89 89 95 98 85 88 92 84 79 75 73 81 86 85 79 73 75 78 77 79 79 76
86 83 82 80 81 85 91 90 85 83 84 91 80 84 86 84 78 85 82 74 76 76 77 76 77 81 74
82 85 85 79 81 87 88 94 89 84 74 90 83 93 86 82 65 80 77 77 80 80 80 82 77 82 92
70 66 63 68 80 73 75 100 98 84 75 91 97 96 85 72 76 80 79 84 82 85 86 88 86 91 96
73 68 67 70 68 68 72 84 100 100 83 98 94 94 96 95 82 81 81 83 90 90 92 88 92 86 91
74 81 77 70 72 77 76 77 76 88 81 93 100 100 97 93 91 82 89 90 90 92 78 86 91 90 89
84 83 76 77 82 82 74 76 75 66 74 82 95 98 100 97 94 91 91 90 87 81 93 96 99 100 100
86 79 83 92 92 91 95 98 100 90 70 82 89 91 100 100 100 97 93 95 92 95 96 95 95 97 98
88 88 96 100 99 93 97 100 100 100 95 77 72 83 92 100 99 92 95 97 94 95 100 97 95 96 96
86 91 100 100 100 96 95 100 100 98 97 92 95 97 88 81 78 81 92 98 95 96 99 100 93 88 91
93 91 88 88 95 97 98 100 98 96 96 98 98 98 93 89 73 79 94 97 100 97 96 98 96 93 93
Wind_Speed
10 14 14 18 15 20 15 16 24 24 21 23 22 20 23 22 25 24 23 23 23 23 24 25 25 25 25
14 14 18 15 20 19 18 22 25 20 25 22 22 25 28 25 26 24 24 23 22 23 22 23 24 22 23
12 16 18 19 23 19 22 28 26 24 20 19 21 24 25 25 25 24 24 21 23 25 27 26 26 26 26
12 15 18 21 19 21 24 28 33 31 19 19 23 24 25 24 25 26 24 25 27 28 27 26 27 27 26
12 15 15 17 20 24 22 24 29 14 18 30 28 32 32 29 28 25 29 29 28 26 24 25 26 27 27
12 14 16 19 23 24 22 20 13 19 29 30 27 29 30 31 28 32 28 26 23 23 29 30 29 28 26
12 13 18 21 22 19 19 18 18 28 26 24 25 28 28 33 32 28 24 21 26 32 27 28 28 27 27
13 16 16 17 17 19 18 21 24 25 23 18 21 24 30 28 30 22 20 28 29 30 29 28 27 27 26
11 10 13 18 16 19 21 20 20 22 24 13 22 30 26 28 22 18 31 26 28 29 29 27 26 27 25
14 17 17 16 16 19 22 17 19 14 12 21 25 22 19 15 23 31 30 31 30 31 28 27 23 23 25
16 18 19 21 23 23 21 21 21 20 30 24 23 27 19 27 24 32 30 33 34 32 30 25 23 23 26
16 17 20 23 23 23 23 23 24 26 31 27 25 28 28 28 27 28 35 32 29 31 29 32 29 26 24
14 17 20 22 23 25 27 26 28 30 29 27 27 31 30 29 29 32 33 34 30 28 32 30 29 29 29
17 20 22 23 23 24 26 26 25 33 33 27 25 28 29 30 28 33 32 23 34 33 30 30 30 27 26
18 21 21 21 23 25 25 25 22 26 31 38 37 36 33 31 28 33 30 29 30 32 30 28 29 27 27
20 22 19 21 24 25 25 23 24 28 29 33 34 34 34 32 20 28 26 25 31 30 29 25 29 29 25
22 22 22 24 23 28 28 25 27 29 31 30 28 24 13 12 35 25 26 29 28 28 27 25 27 32 30
Wind_Direction
322 341 341 344 347 340 345 341 333 336 338 336 336 336 331 327 323 324 323 320 319 315 309 304 299 297 293
335 344 338 348 341 342 336 332 338 341 336 336 337 333 331 332 330 329 324 321 318 315 312 308 300 297 296
332 331 341 347 344 345 336 336 339 335 336 335 332 329 329 329 328 326 326 323 318 320 314 310 306 301 296
331 335 336 342 343 339 334 338 336 339 331 334 331 329 330 328 326 324 323 320 317 314 311 308 301 298 294
330 329 332 338 340 335 328 328 328 329 324 331 329 334 336 331 327 322 319 318 317 316 315 318 316 313 289
337 330 330 335 333 330 322 321 322 324 326 322 326 324 331 330 321 318 321 320 317 321 319 313 306 307 319
334 347 331 333 332 331 328 327 317 320 322 314 317 316 326 324 323 318 318 318 318 317 315 310 306 304 302
340 332 331 332 338 337 333 332 324 321 319 304 318 314 317 319 318 312 312 315 316 316 313 308 307 305 301
348 348 343 335 336 335 342 336 328 322 326 308 322 318 316 310 316 309 312 310 313 315 314 311 308 306 303
345 341 343 346 342 339 339 327 324 324 318 323 317 324 317 309 312 310 310 310 313 315 316 314 313 315 310
343 344 347 344 344 345 342 334 316 303 310 316 311 311 302 306 308 307 310 311 312 316 317 318 317 312 314
353 347 343 345 344 341 339 335 326 312 316 315 296 299 301 303 304 310 312 312 312 310 319 316 314 311 306
350 341 343 341 342 343 339 336 329 323 323 320 306 302 295 295 299 305 308 311 311 311 308 309 306 306 303
344 344 343 341 336 337 328 326 317 313 329 322 312 309 299 296 298 298 300 297 303 305 306 306 303 300 295
346 346 339 331 325 331 327 316 304 306 311 324 330 321 307 295 292 293 295 297 302 304 307 305 303 300 300
351 347 330 322 320 321 321 313 307 306 306 309 311 309 312 309 296 293 295 297 307 305 302 298 300 303 300
345 338 334 331 322 321 318 310 306 305 302 303 302 303 301 300 309 312 304 306 304 302 300 296 295 298 300